#timestamp,LO_Frequency,Hit,StdDev 
1557716415.0,286046991.8,Y
1557716416.0,286046991.8,P
1557716435.8,286046998.0,N
1557716455.6,286046997.2,N
1557716475.5,286046995.5,N
1557716495.3,286046995.5,N
1557716515.1,286046997.2,N
1557716535.9,286046997.9,N
1557716555.7,286046995.8,N
1557716575.6,286046998.0,N
1557716595.4,286046995.5,N
1557716615.2,286046995.8,N
1557716635.1,286046993.6,Y
1557716636.0,286046993.6,P
1557716655.8,286046998.9,N
1557716675.6,286047000.4,N
1557716695.5,286047002.7,N
1557716715.3,286047003.0,N
1557716735.2,286047004.4,N
1557716755.9,286047004.1,N
1557716775.7,286047001.4,N
1557716795.6,286047001.4,N
1557716815.4,286047001.4,N
1557716835.2,286047002.1,N
1557716855.1,286047001.3,N
1557716856.0,286047001.3,N
1557716875.8,286047001.4,N
1557716895.7,286047002.2,N
1557716915.5,286047000.8,N
1557716935.3,286046998.2,N
1557716955.2,286046999.5,N
1557716975.0,286046999.1,N
1557716975.9,286046999.1,N
1557716995.7,286046999.6,N
1557717015.6,286046998.8,N
1557717035.4,286046999.2,N
1557717055.3,286047000.9,N
1557717075.1,286047001.2,N
1557717076.0,286047001.2,N
1557717095.8,286047000.5,N
1557717115.7,286047002.4,N
1557717135.5,286047000.8,N
1557717155.3,286047001.8,N
1557717175.2,286047002.4,N
1557717195.0,286047002.7,N
1557717195.9,286047002.7,N
1557717215.8,286047001.3,N
1557717235.6,286047002.0,N
1557717255.4,286047002.7,N
1557717275.3,286047000.2,N
1557717295.1,286047000.1,N
1557717315.8,286047002.3,N
1557717335.7,286047001.6,N
1557717355.5,286047002.5,N
1557717375.4,286047002.2,N
1557717395.2,286047000.1,N
1557717415.0,286046998.2,N
1557717415.9,286046998.2,N
1557717435.8,286046995.7,N
1557717455.6,286046990.2,Y
1557717475.5,286046989.3,P
1557717495.3,286046989.5,N
1557717515.1,286046988.1,N
1557717535.9,286046987.8,N
1557717555.7,286046986.1,N
1557717575.5,286046980.6,Y
1557717595.4,286046990.9,P
1557717615.2,286046988.9,P
1557717635.1,286046987.0,P
1557717636.0,286046987.0,Y
1557717655.8,286046999.0,P
1557717675.6,286046995.3,N
1557717695.5,286046995.4,N
1557717715.3,286046995.0,N
1557717735.1,286046996.6,N
1557717755.9,286047002.3,N
1557717775.7,286047003.9,N
1557717795.6,286047003.7,N
1557717815.4,286047005.5,N
1557717835.2,286047007.6,N
1557717855.1,286047008.6,N
1557717856.0,286047008.6,N
1557717875.8,286047006.2,N
1557717895.6,286047008.0,N
1557717915.5,286047009.1,N
1557717935.3,286047008.4,N
1557717955.2,286047009.0,N
1557717975.9,286047008.6,N
1557717995.7,286047008.4,N
1557718015.6,286047008.7,N
1557718035.4,286047006.1,N
1557718055.2,286047009.7,N
1557718075.1,286047008.9,N
1557718076.0,286047008.9,N
1557718095.8,286047010.0,N
1557718115.7,286047010.6,N
1557718135.5,286047011.9,N
1557718155.3,286047011.3,N
1557718175.2,286047012.6,N
1557718195.0,286047015.5,N
1557718195.9,286047015.5,N
1557718215.8,286047012.5,N
1557718235.6,286047014.7,N
1557718255.4,286047015.1,Y
1557718275.3,286047007.1,P
1557718295.1,286047004.5,P
1557718315.9,286047007.3,P
1557718335.7,286047007.6,Y
1557718355.5,286046999.4,P
1557718375.4,286046998.7,N
1557718395.2,286046998.9,N
1557718415.0,286046998.6,N
1557718415.9,286046998.6,N
1557718435.8,286047001.1,N
1557718455.6,286047002.5,N
1557718475.5,286047001.5,N
1557718495.3,286047004.2,N
1557718515.1,286047003.4,N
1557718535.9,286047005.4,N
1557718555.7,286047005.6,N
1557718575.5,286047005.7,N
1557718595.4,286047005.0,N
1557718615.2,286047004.7,N
1557718635.1,286047006.8,N
1557718636.0,286047006.8,N
1557718655.8,286047007.2,N
1557718675.6,286047007.4,N
1557718695.5,286047006.5,N
1557718715.3,286047007.2,N
1557718735.1,286047006.7,N
1557718755.9,286047004.5,N
1557718775.7,286047006.2,N
1557718795.5,286047009.1,N
1557718815.4,286047008.3,N
1557718835.2,286047009.0,N
1557718855.1,286047008.8,N
1557718856.0,286047008.8,N
1557718875.8,286047008.8,N
1557718895.6,286047006.6,N
1557718915.5,286047006.1,N
1557718935.3,286047008.8,N
1557718955.1,286047006.9,N
1557718975.9,286047004.8,N
1557718995.7,286047004.8,N
1557719015.6,286047004.6,N
1557719035.4,286047007.4,Y
1557719055.2,286046998.2,P
1557719075.1,286046998.4,N
1557719076.0,286046998.4,N
1557719095.8,286046998.5,N
1557719115.6,286047000.7,N
1557719135.5,286047000.7,N
1557719155.3,286046998.3,N
1557719175.2,286046998.8,N
1557719195.9,286047000.5,N
1557719215.7,286047001.2,N
1557719235.6,286047001.2,N
1557719255.4,286047002.3,N
1557719275.2,286047004.4,N
1557719295.1,286047001.3,N
1557719296.0,286047001.3,N
1557719315.8,286047001.3,N
1557719335.7,286047004.0,N
1557719355.5,286047004.2,N
1557719375.3,286047003.1,N
1557719395.2,286047002.9,N
1557719415.0,286047002.9,N
1557719415.9,286047002.9,N
1557719435.7,286047001.3,N
1557719455.6,286047002.5,N
1557719475.4,286047002.6,N
1557719495.3,286047002.3,N
1557719515.1,286047002.7,N
1557719516.0,286047002.7,N
1557719535.8,286047000.1,N
1557719555.7,286047000.1,N
1557719575.5,286047000.6,N
1557719595.3,286047000.3,N
1557719615.2,286047000.1,N
1557719635.0,286047000.3,N
1557719635.9,286047000.3,N
1557719655.8,286047001.5,N
1557719675.6,286047004.3,N
1557719695.4,286047002.7,N
1557719715.3,286047002.4,N
1557719735.1,286046999.8,N
1557719755.9,286047002.6,N
1557719775.7,286047002.8,N
1557719795.5,286047002.6,N
1557719815.4,286047001.9,N
1557719835.2,286047002.8,N
1557719855.0,286047002.7,N
1557719856.0,286047002.7,N
1557719875.8,286047002.5,N
1557719895.6,286047002.2,N
1557719915.5,286047001.8,N
1557719935.3,286047001.8,N
1557719955.1,286047003.7,Y
1557719975.9,286047002.5,P
1557719995.7,286047003.6,P
